Flag for Norway Weather past 2 weeks in Jørpeland, Norway

Now
61 °F

Sprinkles. Partly cloudy.


Feels Like: 61 °F
Forecast: 54 / 59 °F
Wind: 5 mph from South

Location: Stavanger / Sola

Current Time: Jul 30, 2014 at 3:31:19 AM

Latest Report: Jul 30, 2014 at 2:50 AM


Visibility: N/A

Pressure: 29.74 "Hg

Humidity: 94%

Dew point: 59 °F

Location of JørpelandLocation

Historic Weather in Jørpeland — Graph

°F

Jørpeland temperature yesterday

Maximum temperature yesterday: 70 °F (at 8:50 AM)
Minimum temperature yesterday: 63 °F (at 11:20 PM)
Average temperature yesterday: 67 °F

Past Weeks' High & Low Weather Summary

 TemperatureHumidityPressure
High84 °F (Jul 20, 3:20 PM)100% (Jul 28, 6:20 AM)30.30 "Hg (Jul 28, 6:20 AM)
Low55 °F (Jul 19, 4:50 AM)37% (Jul 20, 1:20 PM)29.74 "Hg (Jul 15, 9:50 AM)
Average69 °F70%30.06 "Hg
* Reported Jul 15 2:50 AM — Jul 30 2:20 AM, Jørpeland, Weather by CustomWeather, © 2014

Note: Actual official high and low records may vary slightly from our data, if they occured in-between our weather recording intervals... More about our weather records

Advertising

Jørpeland weather history for previous 24 hours

 ConditionsComfort  
Time TempWeatherWind HumidityBarometerVisibility
2:20 AM
Jul 30
63 °FPartly cloudy.6 mph88%29.74 "HgN/A
1:50 AM63 °FPassing clouds.3 mph88%29.77 "HgN/A
1:20 AM63 °FPartly cloudy.3 mph88%29.77 "HgN/A
12:50 AM63 °FPartly cloudy.1 mph88%29.77 "HgN/A
12:20 AM63 °FScattered showers. Partly cloudy.2 mph88%29.77 "HgN/A
11:50 PM
Jul 29
63 °FScattered showers. Partly cloudy.2 mph88%29.77 "HgN/A
11:20 PM63 °FSprinkles. Partly cloudy.6 mph94%29.80 "HgN/A
10:50 PM64 °FBroken clouds.3 mph78%29.80 "HgN/A
10:20 PM64 °FBroken clouds.3 mph73%29.80 "HgN/A
9:50 PM64 °FScattered showers. Broken clouds.2 mph73%29.80 "HgN/A
9:20 PM66 °FScattered showers. Scattered clouds.2 mph68%29.80 "HgN/A
8:50 PM66 °FScattered clouds.1 mph68%29.80 "HgN/A
8:20 PM66 °FPartly sunny.5 mph68%29.83 "HgN/A
7:50 PM66 °FPartly sunny.6 mph68%29.83 "HgN/A
7:20 PM66 °FBroken clouds.7 mph68%29.83 "HgN/A
6:50 PM66 °FPartly sunny.9 mph68%29.83 "HgN/A
6:20 PM68 °FPartly sunny.10 mph64%29.86 "HgN/A
5:50 PM68 °FBroken clouds.10 mph69%29.86 "HgN/A
5:20 PM68 °FBroken clouds.9 mph64%29.86 "HgN/A
4:50 PM68 °FBroken clouds.9 mph64%29.86 "HgN/A
4:20 PM68 °FBroken clouds.8 mph64%29.86 "HgN/A
3:50 PM68 °FPartly sunny.10 mph64%29.89 "HgN/A
3:20 PM68 °FPartly sunny.13 mph64%29.86 "HgN/A
2:50 PM68 °FPartly sunny.12 mph69%29.89 "HgN/A
2:20 PM70 °FScattered clouds.12 mph64%29.89 "HgN/A
1:50 PM68 °FScattered clouds.13 mph64%29.89 "HgN/A
1:20 PM68 °FScattered clouds.12 mph64%29.89 "HgN/A
12:50 PM68 °FPartly sunny.12 mph69%29.89 "HgN/A
12:20 PM66 °FPartly sunny.14 mph78%29.89 "HgN/A
11:50 AM68 °FBroken clouds.15 mph73%29.89 "HgN/A
11:20 AM68 °FPartly sunny.15 mph73%29.89 "HgN/A
10:50 AM66 °FPartly sunny.15 mph78%29.89 "HgN/A
10:20 AM68 °FBroken clouds.12 mph73%29.89 "HgN/A
9:50 AM68 °FBroken clouds.10 mph78%29.89 "HgN/A
9:20 AM68 °FBroken clouds.10 mph73%29.89 "HgN/A
8:50 AM70 °FBroken clouds.9 mph73%29.89 "HgN/A
8:20 AM68 °FPartly sunny.8 mph78%29.89 "HgN/A
7:50 AM66 °FBroken clouds.6 mph83%29.89 "HgN/A
7:20 AM66 °FBroken clouds.7 mph78%29.89 "HgN/A
6:50 AM66 °FBroken clouds.6 mph78%29.92 "HgN/A
6:20 AM64 °FBroken clouds.6 mph83%29.92 "HgN/A
5:50 AM64 °FPartly cloudy.5 mph83%29.92 "HgN/A
5:20 AM66 °FPassing clouds.8 mph83%29.92 "HgN/A
4:50 AM66 °FPassing clouds.8 mph78%29.92 "HgN/A
4:20 AM66 °FPassing clouds.8 mph78%29.95 "HgN/A
3:50 AM66 °FPassing clouds.10 mph78%29.95 "HgN/A
Weather by CustomWeather, © 2014

See weather overviewHow to use our weather pages